[[{"header":{"parameterUnit":"m.s-1","parameterCategory":1,"la1":30.2991,"la2":30.254,"lo1":-89.0895,"lo2":-89.0444,"dy":0.0017,"dx":0.0017,"nx":28,"ny":28,"refTime":"2023-09-08T03:00:00:Z","depth":0,"parameterNumber":2,"parameterNumberName":"U-component_of_WINDS"},"data":[0,0,0,0,0,0,0,0,0,0,0,0,0,0,0,0,0,0,0,0,0,0,0,0,0,0,0,0,0,0,0,0,0,0,0,0,0,0,0,0,0,0,0,0,0,0,0,0,0,0,0,0,0,0,0,0,0,0,-2.4586,-2.4585,0,-2.4509,-2.4509,-2.4508,-2.433,-2.4327,-2.4323,-2.432,-2.4245,-2.4247,-2.4248,0,0,0,0,0,0,0,0,0,0,0,0,0,-2.4583,-2.4584,-2.4586,-2.4585,-2.4584,-2.451,-2.4508,-2.4507,-2.4331,-2.4327,-2.4322,-2.4318,-2.4245,-2.4247,-2.4248,0,0,0,0,0,0,0,0,0,0,0,0,0,-2.4553,-2.4584,-2.4587,-2.4487,-2.4478,-2.451,-2.4508,-2.4507,-2.4332,-2.4326,-2.4321,-2.4316,-2.4244,-2.4246,-2.4249,-2.4372,0,0,-2.4255,-2.4256,0,0,0,0,0,0,0,0,-2.4555,-2.4553,-2.4503,-2.4494,-2.4483,-2.4424,-2.448,-2.4462,-2.4333,-2.4387,-2.4319,-2.4313,-2.4309,-2.4306,-2.4304,-2.4369,-2.4366,-2.4255,-2.4257,-2.4258,-2.4258,0,0,0,0,0,0,0,-2.4557,-2.4556,-2.4556,-2.4502,-2.449,-2.4447,-2.4437,-2.4476,-2.4381,-2.4382,-2.4369,-2.4362,-2.4303,-2.4302,-2.4301,-2.4365,-2.4255,-2.4257,-2.4259,-2.4259,-2.4525,-2.4531,0,0,0,0,0,0,-2.4573,-2.4559,-2.4558,-2.4554,-2.4506,-2.4452,-2.444,-2.4449,-2.4379,-2.4364,-2.4367,-2.4354,-2.4301,-2.4298,-2.4297,-2.4437,-2.4258,-2.426,-2.4261,-2.4519,-2.4526,-2.4533,0,0,0,0,0,0,-2.4574,-2.4575,-2.4561,-2.4552,-2.4547,-2.4458,-2.4468,-2.445,-2.4449,-2.4368,-2.435,-2.4383,-2.4297,-2.4294,-2.4354,-2.4432,-2.4261,-2.4263,-2.4513,-2.4522,-2.453,-2.4718,0,0,0,0,0,0,-2.4574,-2.4576,-2.4622,-2.4555,-2.4549,-2.462,-2.4473,-2.4452,-2.4452,-2.4435,-2.4379,-2.4364,-2.4292,-2.4352,-2.4356,-2.4432,-2.4264,-2.4505,-2.4517,-2.4527,-2.4704,-2.4732,-2.4755,0,0,0,0,0,-2.4575,-2.468,-2.4625,-2.4626,-2.4604,-2.4625,-2.4621,-2.4535,-2.4459,-2.4505,-2.4452,-2.4366,-2.4422,-2.436,-2.4363,-2.444,-2.45,-2.4513,-2.4526,-2.4693,-2.4726,-2.4755,0,0,0,0,0,0,-2.4761,-2.4669,-2.4608,-2.4694,-2.4668,-2.4595,-2.465,-2.4574,-2.457,-2.4554,-2.4448,-2.4437,-2.4512,-2.4481,-2.4413,-2.4555,-2.4447,-2.4461,-2.4573,-2.4604,-2.4629,-2.4635,-2.4266,0,0,0,0,0,-2.4811,-2.4835,-2.4753,-2.4837,-2.4827,-2.4741,-2.4747,-2.4682,-2.4652,-2.4641,-2.4593,-2.4568,-2.4579,-2.459,-2.4596,-2.4698,-2.4683,-2.4753,-2.4778,-2.48,-2.4814,-2.4864,-2.4894,-2.4575,-2.4575,-2.4575,0,0,-2.4917,-2.487,-2.4891,-2.4873,-2.4846,-2.4873,-2.4733,-2.4768,-2.4788,-2.4646,-2.4699,-2.4664,-2.4628,-2.471,-2.4743,-2.4687,-2.4898,-2.4816,-2.4834,-2.4836,-2.4881,-2.4911,-2.4938,-2.4584,-2.4582,-2.4581,0,0,-2.5123,-2.509,-2.5155,-2.5129,-2.5088,-2.503,-2.5046,-2.4983,-2.4953,-2.5004,-2.4898,-2.492,-2.4942,-2.4921,-2.4914,-2.5109,-2.5029,-2.5114,-2.5248,-2.5298,-2.5323,-2.5345,-2.5415,-2.5441,-2.5127,-2.5128,-2.5128,0,-2.5261,-2.5296,-2.5199,-2.524,-2.5235,-2.5105,-2.5171,-2.5151,-2.5116,-2.5115,-2.5052,-2.5076,-2.5043,-2.5117,-2.5165,-2.5163,-2.5178,-2.5121,-2.5327,-2.5348,-2.5367,-2.5432,-2.5459,-2.5139,-2.5137,-2.5136,-2.5135,0,-2.5466,-2.5492,-2.555,-2.5516,-2.5517,-2.5571,-2.5482,-2.5495,-2.543,-2.5378,-2.5431,-2.5387,-2.5381,-2.5393,-2.5331,-2.5458,-2.5424,-2.5346,-2.5235,-2.541,-2.5469,-2.5493,-2.5154,-2.515,-2.5147,-2.5144,0,0,-2.5791,-2.57,-2.5723,-2.5705,-2.5649,-2.5668,-2.5714,-2.5707,-2.572,-2.5699,-2.5736,-2.5756,-2.5682,-2.5674,-2.5607,-2.5652,-2.5808,-2.5567,-2.5564,-2.5614,-2.5945,-2.6006,-2.6036,-2.5754,-2.5758,-2.5762,-2.5948,0,-2.5984,-2.6058,-2.5971,-2.6064,-2.6086,-2.5962,-2.6002,-2.5973,-2.5925,-2.5938,-2.5885,-2.5901,-2.5803,-2.5796,-2.5834,-2.5782,-2.5874,-2.5766,-2.5788,-2.579,-2.5802,-2.6067,-2.6131,-2.6309,-2.5971,-2.5975,-2.5977,0,-2.6221,-2.6208,-2.6304,-2.6239,-2.6245,-2.6283,-2.6268,-2.6281,-2.6245,-2.6207,-2.6196,-2.6115,-2.6156,-2.6047,-2.6103,-2.6032,-2.6035,-2.601,-2.6015,-2.6015,-2.5896,-2.6075,-2.6364,-2.6392,-2.6013,-2.601,-2.6008,0,-2.6448,-2.6455,-2.6512,-2.6501,-2.6427,-2.6457,-2.6428,-2.6385,-2.6386,-2.6373,-2.6372,-2.6365,-2.6361,-2.6358,-2.6277,-2.6205,-2.6343,-2.6227,-2.6313,-2.6315,-2.6349,-2.6348,-2.6644,-2.635,-2.635,-2.6349,-2.6349,0,-2.6674,-2.6738,-2.6613,-2.6649,-2.6715,-2.6613,-2.6682,-2.664,-2.6603,-2.6628,-2.6521,-2.6547,-2.6438,-2.6452,-2.6389,-2.6445,-2.6444,-2.6415,-2.6398,-2.6425,-2.6429,-2.6427,-2.6413,-2.6356,-2.6354,-2.6353,-2.6352,0,-2.6941,-2.686,-2.6914,-2.6838,-2.6821,-2.6873,-2.6809,-2.6838,-2.6782,-2.6815,-2.6817,-2.673,-2.6741,-2.6659,-2.6656,-2.6613,-2.67,-2.666,-2.6712,-2.67,-2.679,-2.6784,-2.7096,-2.7132,-2.6815,-2.6818,-2.6821,0,-2.7091,-2.7136,-2.7064,-2.7073,-2.7048,-2.7064,-2.7062,-2.6963,-2.6967,-2.6927,-2.6962,-2.6963,-2.696,-2.6983,-2.692,-2.6917,-2.6877,-2.6987,-2.6876,-2.6902,-2.6879,-2.6878,-2.6882,-2.7011,-2.7015,-2.7018,-2.7021,0,-2.7366,-2.7323,-2.7325,-2.7313,-2.7314,-2.73,-2.7279,-2.7292,-2.7184,-2.7193,-2.7202,-2.72,-2.7194,-2.7198,-2.7181,-2.7151,-2.7069,-2.7055,-2.7075,-2.7105,-2.7132,-2.7119,-2.6776,-2.7049,-2.7046,-2.7044,-2.7043,-2.7042,-2.7579,-2.7613,-2.7567,-2.7572,-2.7545,-2.7527,-2.7551,-2.7496,-2.7501,-2.7489,-2.7429,-2.7449,-2.7409,-2.7378,-2.7356,-2.737,-2.7317,-2.7346,-2.7353,-2.7362,-2.7378,-2.7129,-2.7366,-2.7365,-2.7364,-2.7364,-2.7363,0,-2.7849,-2.7812,-2.7818,-2.779,-2.7795,-2.7713,-2.7685,-2.7694,-2.7712,-2.7681,-2.7679,-2.7688,-2.769,-2.7626,-2.762,-2.7644,-2.7605,-2.7645,-2.7643,-2.7638,-2.7426,-2.7409,-2.7676,-2.7676,-2.7676,-2.7676,-2.7676,-2.7676,-2.799,-2.8042,-2.7994,-2.8031,-2.7993,-2.8011,-2.8001,-2.7984,-2.7958,-2.7974,-2.7974,-2.7931,-2.7886,-2.7875,-2.7873,-2.7854,-2.7857,-2.7911,-2.7879,-2.7683,-2.7653,-2.7624,-2.7608,-2.7912,-2.7912,-2.8089,-2.8091,-2.8092]},{"header":{"parameterUnit":"m.s-1","parameterCategory":1,"la1":30.2991,"la2":30.254,"lo1":-89.0895,"lo2":-89.0444,"dy":0.0017,"dx":0.0017,"nx":28,"ny":28,"refTime":"2023-09-08T03:00:00:Z","depth":0,"parameterNumber":3,"parameterNumberName":"V-component_of_WINDS"},"data":[0,0,0,0,0,0,0,0,0,0,0,0,0,0,0,0,0,0,0,0,0,0,0,0,0,0,0,0,0,0,0,0,0,0,0,0,0,0,0,0,0,0,0,0,0,0,0,0,0,0,0,0,0,0,0,0,0,0,-3.4126,-3.4127,0,-3.4198,-3.4199,-3.42,-3.4167,-3.4166,-3.4164,-3.4162,-3.4233,-3.4236,-3.424,0,0,0,0,0,0,0,0,0,0,0,0,0,-3.3956,-3.3959,-3.4126,-3.4127,-3.4128,-3.4198,-3.4199,-3.42,-3.4168,-3.4165,-3.4163,-3.4161,-3.4232,-3.4236,-3.424,0,0,0,0,0,0,0,0,0,0,0,0,0,-3.4029,-3.396,-3.4126,-3.412,-3.412,-3.4198,-3.4199,-3.42,-3.4168,-3.4165,-3.4163,-3.416,-3.423,-3.4235,-3.4241,-3.4327,0,0,-3.4257,-3.4259,0,0,0,0,0,0,0,0,-3.4025,-3.4035,-3.412,-3.4121,-3.4121,-3.4171,-3.4165,-3.4242,-3.4169,-3.415,-3.4162,-3.4159,-3.4214,-3.4221,-3.424,-3.433,-3.4333,-3.4257,-3.4261,-3.4263,-3.4264,0,0,0,0,0,0,0,-3.402,-3.4032,-3.4154,-3.4121,-3.4122,-3.4113,-3.412,-3.4179,-3.4196,-3.4151,-3.4149,-3.4158,-3.4214,-3.4235,-3.4241,-3.4334,-3.4257,-3.4262,-3.4265,-3.4267,-3.4496,-3.4499,0,0,0,0,0,0,-3.4015,-3.4028,-3.4152,-3.4156,-3.4065,-3.4118,-3.4126,-3.4158,-3.4195,-3.4199,-3.416,-3.4156,-3.4227,-3.4235,-3.4244,-3.4345,-3.4263,-3.4268,-3.4271,-3.4493,-3.4497,-3.45,0,0,0,0,0,0,-3.4012,-3.4027,-3.4149,-3.4092,-3.4106,-3.4124,-3.4159,-3.416,-3.4181,-3.4202,-3.4205,-3.4179,-3.4225,-3.4236,-3.4306,-3.4347,-3.427,-3.4275,-3.449,-3.4494,-3.4498,-3.4551,0,0,0,0,0,0,-3.4007,-3.4026,-3.406,-3.4093,-3.411,-3.4212,-3.4162,-3.4164,-3.4191,-3.4186,-3.422,-3.4223,-3.4224,-3.4298,-3.4311,-3.4353,-3.4279,-3.4486,-3.4492,-3.4497,-3.4545,-3.4556,-3.4566,0,0,0,0,0,-3.4001,-3.4071,-3.4061,-3.4077,-3.4153,-3.4214,-3.4224,-3.4224,-3.4195,-3.4228,-3.4241,-3.4222,-3.4341,-3.4306,-3.432,-3.4364,-3.4484,-3.449,-3.4497,-3.4541,-3.4554,-3.4565,0,0,0,0,0,0,-3.4042,-3.4075,-3.4065,-3.4148,-3.4179,-3.4208,-3.4251,-3.4238,-3.4277,-3.4271,-3.4269,-3.4277,-3.4349,-3.4364,-3.4324,-3.4449,-3.4408,-3.4417,-3.4436,-3.4449,-3.4459,-3.4453,-3.4284,0,0,0,0,0,-3.406,-3.4109,-3.4135,-3.4206,-3.4222,-3.4234,-3.426,-3.4258,-3.4289,-3.4301,-3.432,-3.4349,-3.4393,-3.4422,-3.4464,-3.4547,-3.4553,-3.4585,-3.4595,-3.4603,-3.4611,-3.4655,-3.4668,-3.4521,-3.4521,-3.4521,0,0,-3.4099,-3.4124,-3.4154,-3.4214,-3.4238,-3.4286,-3.4245,-3.4298,-3.4333,-3.4309,-3.4376,-3.4391,-3.4423,-3.45,-3.4535,-3.4515,-3.4653,-3.4612,-3.4618,-3.4622,-3.4663,-3.4677,-3.4689,-3.4526,-3.4525,-3.4524,0,0,-3.4195,-3.4219,-3.4279,-3.4304,-3.434,-3.4347,-3.4362,-3.4394,-3.4402,-3.447,-3.4452,-3.4493,-3.457,-3.4593,-3.4615,-3.4719,-3.4702,-3.4732,-3.4785,-3.4827,-3.4839,-3.4849,-3.4884,-3.4897,-3.474,-3.4741,-3.4741,0,-3.4238,-3.4312,-3.4312,-3.4367,-3.4393,-3.4374,-3.4434,-3.4457,-3.4505,-3.4522,-3.45,-3.4594,-3.4615,-3.4696,-3.4721,-3.474,-3.4755,-3.4728,-3.4837,-3.4848,-3.4857,-3.4891,-3.4904,-3.4744,-3.4743,-3.4743,-3.4743,0,-3.4362,-3.4413,-3.4458,-3.4505,-3.4536,-3.4593,-3.4601,-3.4632,-3.4627,-3.4636,-3.4704,-3.4728,-3.4774,-3.4793,-3.4789,-3.4873,-3.486,-3.4838,-3.4796,-3.4874,-3.4906,-3.4919,-3.4749,-3.4747,-3.4746,-3.4746,0,0,-3.4485,-3.4531,-3.4547,-3.4567,-3.4605,-3.4644,-3.47,-3.4745,-3.4771,-3.4804,-3.485,-3.4914,-3.4893,-3.4918,-3.4916,-3.4954,-3.5032,-3.4926,-3.4927,-3.4944,-3.5124,-3.514,-3.5155,-3.5021,-3.5024,-3.5026,-3.5121,0,-3.4582,-3.468,-3.4682,-3.4772,-3.4818,-3.48,-3.4848,-3.4876,-3.4886,-3.4925,-3.4936,-3.4981,-3.4951,-3.4966,-3.5002,-3.5014,-3.5068,-3.5008,-3.5062,-3.5064,-3.5053,-3.5172,-3.5188,-3.5277,-3.5133,-3.5136,-3.5137,0,-3.4708,-3.4746,-3.484,-3.487,-3.489,-3.4933,-3.4974,-3.5013,-3.5043,-3.5047,-3.5075,-3.5067,-3.5122,-3.5079,-3.5154,-3.5113,-3.5135,-3.5145,-3.5148,-3.5152,-3.5104,-3.5177,-3.5306,-3.5318,-3.5157,-3.5155,-3.5154,0,-3.4786,-3.486,-3.4926,-3.4944,-3.4981,-3.5012,-3.5028,-3.5056,-3.5083,-3.5118,-3.5135,-3.5176,-3.5198,-3.523,-3.5232,-3.5202,-3.5307,-3.5265,-3.531,-3.531,-3.5332,-3.5331,-3.5465,-3.5349,-3.5349,-3.5349,-3.5349,0,-3.4893,-3.4951,-3.4961,-3.5002,-3.5066,-3.5066,-3.5129,-3.5143,-3.5168,-3.5209,-3.5196,-3.5235,-3.5237,-3.5276,-3.5278,-3.5339,-3.5349,-3.5353,-3.5353,-3.5354,-3.5353,-3.5367,-3.536,-3.5352,-3.5352,-3.5351,-3.535,0,-3.499,-3.5,-3.507,-3.5099,-3.5108,-3.5154,-3.5178,-3.5216,-3.5224,-3.5277,-3.5289,-3.5303,-3.5348,-3.5354,-3.5407,-3.5409,-3.5481,-3.5475,-3.5471,-3.5469,-3.5514,-3.5509,-3.566,-3.5679,-3.5553,-3.5554,-3.5555,0,-3.5057,-3.5102,-3.5136,-3.5163,-3.5181,-3.5226,-3.5253,-3.5255,-3.5283,-3.532,-3.5353,-3.5398,-3.5433,-3.5507,-3.552,-3.5561,-3.5554,-3.5605,-3.556,-3.5559,-3.5553,-3.555,-3.5553,-3.5613,-3.5614,-3.5615,-3.5616,0,-3.5175,-3.5177,-3.5217,-3.5259,-3.5292,-3.5324,-3.5355,-3.5378,-3.5383,-3.5416,-3.5463,-3.549,-3.5545,-3.5588,-3.5628,-3.5644,-3.563,-3.563,-3.5643,-3.5643,-3.5638,-3.564,-3.5493,-3.5627,-3.5625,-3.5625,-3.5624,-3.5624,-3.5258,-3.5296,-3.5325,-3.537,-3.5393,-3.5422,-3.5459,-3.5472,-3.5512,-3.5556,-3.5555,-3.5606,-3.5634,-3.5686,-3.5704,-3.5743,-3.5726,-3.5744,-3.5749,-3.5753,-3.5756,-3.5634,-3.575,-3.575,-3.575,-3.575,-3.5749,0,-3.5373,-3.5391,-3.5432,-3.5476,-3.551,-3.5496,-3.5529,-3.5559,-3.5604,-3.5632,-3.5667,-3.572,-3.5762,-3.5779,-3.582,-3.5848,-3.5843,-3.5859,-3.5856,-3.5859,-3.577,-3.5755,-3.5862,-3.5862,-3.5862,-3.5862,-3.5862,-3.5862,-3.5437,-3.55,-3.5505,-3.5579,-3.5596,-3.5647,-3.5667,-3.5693,-3.5714,-3.5774,-3.581,-3.5821,-3.5844,-3.5886,-3.5923,-3.5927,-3.5942,-3.596,-3.5961,-3.5877,-3.5866,-3.5855,-3.584,-3.5964,-3.5964,-3.6046,-3.6047,-3.6048]}]]